Location: Unspecified
(0.0000°N, 0.0000°E)
Time: 00:16:12
(UTC+02:00)

Hubble Space Telescope - Visible Passes

Search period start: 02 August 2015 00:00
Search period end: 12 August 2015 00:00
Orbit: 541 x 545 km, 28.5° (Epoch: 31 July)

Date Brightness Start Highest point End Pass type
(mag) Time Alt. Az. Time Alt. Az. Time Alt. Az.
02 Aug 1.5 06:47:38 16° NW 06:50:42 51° NNE 06:54:46 10° ESE visible
03 Aug 0.8 06:40:26 40° NW 06:41:51 77° NNE 06:46:01 10° ESE visible
04 Aug 0.7 06:33:09 70° S 06:33:09 70° S 06:37:09 10° SE visible
05 Aug 2.1 06:25:46 30° SSE 06:25:46 30° SSE 06:28:09 10° SE visible
06 Aug 3.2 06:18:14 15° SSE 06:18:14 15° SSE 06:19:03 10° SE visible
